Location: *
(38.9555°S, 57.3572°E)
Time: 01:48:33
(UTC+00:00)

Cosmos 1606 Rocket - Pass Details

Date: 15 July 2020
Orbit: 604 x 631 km, 82.5° (Epoch: 06 August)

Event Time Altitude Azimuth Distance (km) Brightness Sun altitude
Rises 14:49:50 0° 4° (N) 2,894 7.1 -19.5°
Reaches altitude 10° 14:52:04 10° 7° (N) 1,992 6.2 -19.9°
Maximum altitude 14:56:25 59° 86° (E) 726 3.5 -20.7°
Enters shadow 14:56:59 54° 120° (ESE) 767 3.6 -20.9°
